Regional Weather Roundup
Issued by NWS

Home | Current Version | Previous Version | Text Only | Print | Product List | Glossary Off
Versions: 1 2 3 4 5 6 7 8 9 10 11 12 13 14 15 16 17 18 19 20 21 22 23 24 25 26 27 28

000
ASUS45 KBOU 162010
RWRCO

WEATHER ROUNDUP FOR COLORADO
NATIONAL WEATHER SERVICE DENVER/BOULDER CO
100 PM MST SAT DEC 16 2017

NOTE: "FAIR" INDICATES FEW OR NO CLOUDS BELOW 12000 FEET WITH NO
SIGNIFICANT WEATHER AND/OR OBSTRUCTIONS TO VISIBILITY.

COZ001>005-013-030-031-162100-
...NORTHWEST COLORADO...

CITY           SKY/WX    TMP DP  RH WIND       PRES   REMARKS
CRAIG          FAIR      30  13  49 CALM      29.79F
HAYDEN         FAIR      30  16  56 SE3       29.78F
MEEKER         FAIR      41  12  30 CALM      29.75F
RABBIT EARS PA CLOUDY    30   0  27 CALM      29.80F
STEAMBOAT SPGS FAIR      29  15  55 CALM      29.76F
WALDEN         PTSUNNY   32   7  34 CALM      29.77F
$$

COZ006>008-011-162100-
...WEST CENTRAL VALLEYS...

CITY           SKY/WX    TMP DP  RH WIND       PRES   REMARKS
GRAND JUNCTION FAIR      38  11  32 W3        29.78F
MONTROSE       FAIR      38   8  29 NE6       29.78F
EAGLE          FAIR      23  11  60 NW3       29.83F
RIFLE          FAIR      35   9  33 CALM      29.79F
DELTA          FAIR      38   5  25 CALM      29.78F
NUCLA          FAIR      39  -4  16 CALM      29.82F
$$

COZ017>023-064>068-162100-
...SOUTHWEST COLORADO...

CITY           SKY/WX    TMP DP  RH WIND       PRES   REMARKS
DURANGO        FAIR      44  14  29 CALM      29.78F
CORTEZ         FAIR      45  11  25 CALM      29.78F
PAGOSA SPRINGS FAIR      44   6  20 S3        29.78F
TELLURIDE      FAIR      39  -9  13 W3        29.82F
WOLF CREEK PAS FAIR      32   5  32 SW8       29.92F WCI  25
$$

COZ009-010-012-014-032>034-037-058>063-162100-
...CENTRAL COLORADO...

CITY           SKY/WX    TMP DP  RH WIND       PRES   REMARKS
ASPEN          FAIR      32  14  47 N7        29.75F WCI  26
BUENA VISTA    FAIR      43   6  22 SW5       29.78F
COPPER MTN     NOT AVBL
BERTHOUD PASS  FAIR      23  12  63 SE18G25   29.88F WCI   9
COTTONWOOD PAS FAIR      45   3  18 E7        29.82F
GUNNISON       FAIR      22   8  55 CALM      29.83F
KREMMLING      FAIR      25  14  63 CALM      29.81F
LEADVILLE      CLOUDY    32   2  27 CALM      29.80F
MONARCH PASS   FAIR      32   3  29 NE13      29.97F WCI  22
SALIDA         FAIR      46   5  18 W6        29.84F
SUNLIGHT       FAIR      32  -4  21 SW13G24   29.85F WCI  22
WILKERSON PASS FAIR      32   1  27 CALM      29.89F
$$

COZ069>075-162100-
...SAN LUIS VALLEY/SANGRE DE CRISTO MOUNTAINS...

CITY           SKY/WX    TMP DP  RH WIND       PRES   REMARKS
ALAMOSA        FAIR      38  12  34 NW3       29.77F
DEL NORTE      FAIR      36  11  36 E3        29.79F
LA VETA PASS   FAIR      39  10  30 NE20G29     N/A
SAGUACHE       FAIR      37  12  35 CALM      29.78F
$$

COZ035-036-038>040-162100-
...NORTHERN COLORADO FRONT RANGE...

CITY           SKY/WX    TMP DP  RH WIND       PRES   REMARKS
DENVER INTL AP PTSUNNY   50  10  20 VRB6      29.80F
DMNS CITY PARK NOT AVBL
AURORA         PTSUNNY   48  10  21 NE9       29.80F
FRONT RANGE AP PTSUNNY   48  12  23 NE8G16    29.81F
ERIE MUNI ARPT FAIR      47   9  20 N6        29.85F
BOULDER MUN AP FAIR      46  12  25 CALM      29.80F
CENTENNIAL     PTSUNNY   45  13  27 NE6       29.80F
BROOMFIELD     PTSUNNY   48   9  20 N6        29.81F
FORT COLLINS   FAIR      49  16  26 NE10      29.81F
LONGMONT       FAIR      52  12  20 NE6       29.82F
$$

COZ041-046-047-076>085-087-088-162100-
...PIKES PEAK/PALMER DIVIDE AND SOUTHERN FOOTHILLS...

CITY           SKY/WX    TMP DP  RH WIND       PRES   REMARKS
COLO. SPRINGS  PTSUNNY   52   4  14 N20       29.75F
A. F. ACADEMY  FAIR      47   2  15 N17       29.77F
SCHRIEVER AFB  FAIR      49   1  13 NE17G28   29.75F
CHEYENNE MTN   FAIR      46   4  17 N17       29.70F
ELLICOTT         N/A    N/A N/A N/A NE23G31   29.73F
FALCON         FAIR      46   1  15 N15G24    29.78F
FORT CARSON    FAIR      55   3  12 NE18      29.72F
LIMON          FAIR      51   7  16 NE16G24   29.76F
MONUMENT HILL  FAIR      41   7  24 NE12      29.82F
CANON CITY     FAIR      61   9  12 SE15G24   29.70F
WALSENBURG     FAIR      57  12  17 N21G28    29.71F
TRINIDAD       FAIR      62  13  14 N16G24    29.67F
$$

COZ042>045-048>051-090-091-162100-
...NORTHEAST COLORADO...

CITY           SKY/WX    TMP DP  RH WIND       PRES   REMARKS
GREELEY ARPT   NOT AVBL
AKRON          FAIR      46  18  32 E16G24    29.79F
BURLINGTON     FAIR      54  18  24 NE20G28   29.73F
WRAY           FAIR      50  19  29 NE21      29.79S
YUMA           FAIR      46  19  34 NE18G24   29.79F
STERLING       FAIR      46  27  46 NE12G18   29.80F
HOLYOKE        FAIR      50  28  43 NE21G26   29.81S
FORT MORGAN    FAIR      47  13  25 E10       29.81F
$$

COZ086-089-092>099-162100-
...SOUTHEAST COLORADO...

CITY           SKY/WX    TMP DP  RH WIND       PRES   REMARKS
PUEBLO         FAIR      60   4  10 NE22G30   29.70F
LA JUNTA       FAIR      58  16  19 E9        29.66F
LAMAR          FAIR      61  13  15 E16       29.64F
SPRINGFIELD      N/A     59  15  18 E9        29.64F
$$




USA.gov is the U.S. government's official web portal to all federal, state and local government web resources and services.